Torna al catalogo

FENGYUN 1C DEB

AttivoSSO
NORAD 29993·DEBRIS·🇨🇳 China

Lanciato May 10, 1999 da Taiyuan Satellite Launch Center

Loading…

Prossimi Passaggi (prossime 24 ore)

TLE

AggiornatoSource: Space-Track

Epoca: Sep 14, 2026, 07:33 UTC

1 29993U 99025LT  26257.31492291  .00000169  00000-0  12352-3 0  9992
2 29993  98.7609 291.4845 0038123 256.2100 103.4826 14.08224106 10495

Traccia FENGYUN 1C DEB in tempo reale con AllMySat

Download on the App Store